Location: Ponte Samoggia
(44.5667°N, 11.1333°E)
Time: 23:50:45
(UTC+00:00)

Cosmos 1703 - Pass Details

Date: 26 May 2022
Orbit: 518 x 535 km, 82.5° (Epoch: 26 June)

Event Time Altitude Azimuth Distance (km) Brightness Sun altitude
Exits shadow 01:35:54 23° 167° (SSE) 1,172 4.6 -16.6°
Maximum altitude 01:38:11 58° 95° (E) 630 3.7 -16.4°
Drops below altitude 10° 01:42:04 10° 16° (NNE) 1,796 7.1 -16.0°
Sets 01:44:14 0° 13° (NNE) 2,690 8.1 -15.8°
